Location: ????????
(55.7667°N, 37.4833°E)
Time: 17:52:28
(UTC+00:00)

Spot 1 - Pass Details

Date: 19 May 2025
Orbit: 568 x 753 km, 98.7° (Epoch: 20 June)

Event Time Altitude Azimuth Distance (km) Brightness Sun altitude
Rises 21:38:44 0° 14° (NNE) 2,843 9.2 -14.2°
Reaches altitude 10° 21:40:52 10° 11° (N) 1,957 8.0 -14.2°
Maximum altitude 21:45:03 62° 292° (WNW) 706 4.4 -14.2°
Enters shadow 21:48:09 19° 215° (SW) 1,537 5.6 -14.1°
